Regional Weather Roundup
Issued by NWS Jackson, KY

Home | Current Version | Previous Version | Graphics & Text | Print | Product List | Glossary On
Versions: 1 2 3 4 5 6 7 8 9 10 11 12 13 14 15 16 17 18 19 20 21 22 23 24 25 26 27 28 29 30 31 32 33 34 35 36 37 38 39 40 41 42 43 44 45 46 47 48 49 50
000
ASUS43 KJKL 281610
RWRJKL

EAST KENTUCKY HOURLY WEATHER ROUNDUP
NATIONAL WEATHER SERVICE JACKSON KY
1200 PM EDT WED JUN 28 2017

NOTE: "FAIR" INDICATES FEW OR NO CLOUDS BELOW 12,000 FEET WITH
NO SIGNIFICANT WEATHER AND/OR OBSTRUCTIONS TO VISIBILITY.

* THESE REPORTS ARE NOT UNDER NWS QUALITY CONTROL AND MAY NOT
  REPORT WEATHER SUCH AS PRECIPITATION AND FOG.

KYZ079-080-083-085-087-088-110-112-115-119-120-281700
...EASTERN KENTUCKY...

CITY           SKY/WX    TMP DP  RH WIND       PRES   REMARKS
JACKSON        SUNNY     74  52  46 VRB3      30.22S
LONDON         SUNNY     76  49  38 SW8       30.21R
SOMERSET*      SUNNY     73  50  43 S5        30.21S
MONTICELLO*    SUNNY     78  55  44 VRB6      30.21S
WILLIAMSBURG*  SUNNY     75  54  46 SE3       30.21S
MIDDLESBORO*   SUNNY     74  56  54 NE3       30.22S
HARLAN APT*    MOSUNNY   73  52  46 CALM      30.23S
PIKE CO APT*     N/A     72  51  48 CALM      30.23S
BIG SANDY APT* SUNNY     75  50  42 CALM      30.22S
MOREHEAD APT*  SUNNY     75  52  43 S7G13     30.22S
ASHLAND*       SUNNY     75  55  50 SW6       30.19S
$$

KYZ035-036-041-042-044-050-067-078-099-281700
...CENTRAL KENTUCKY...

CITY           SKY/WX    TMP DP  RH WIND       PRES   REMARKS
MT STERLING*   SUNNY     73  52  46 SW5       30.21F
FLEMING/MASON* SUNNY     75  52  45 S8        30.20F
DANVILLE*      SUNNY     77  52  41 SW7       30.20F
LEXINGTON      SUNNY     76  48  37 SE7       30.18F
FRANKFORT      SUNNY     77  51  40 MISG      30.16F
LOUISVILLE     PTSUNNY   80  54  40 S9        30.15S
LEBANON*         N/A     77  54  44 S8        30.18F
GLASGOW*       SUNNY     78  55  44 SW5       30.16F
BOWLING GREEN  SUNNY     80  56  43 S6        30.15F
$$

KYZ091>093-OHZ055-061-077-WVZ005-015-034-035-042-281700
...SOUTHERN OHIO/WEST VIRGINIA...

CITY           SKY/WX    TMP DP  RH WIND       PRES   REMARKS
COVINGTON      PTSUNNY   75  55  49 S13       30.17S
COLUMBUS       PTSUNNY   73  50  44 SW8       30.18S
DAYTON         CLOUDY    72  51  47 S13G18    30.18R
WILMINGTON     SUNNY     73  55  53 SW9       30.18R
HUNTINGTON     SUNNY     74  48  39 S8        30.20S
CHARLESTON     MOSUNNY   74  49  41 VRB3      30.21S
PINEVILLE*     SUNNY     73  49  41 MISG      30.29F
BECKLEY        SUNNY     69  46  43 VRB5      30.26S
BLUEFIELD      SUNNY     68  43  40 VRB5      30.28F
LOGAN CO APT*    N/A     72  50  46 CALM      30.23S
$$

VAZ002-007-008-TNZ017-027-036-066-071-281700
...SOUTHWEST VIRGINIA/EAST TENNESSEE...

CITY           SKY/WX    TMP DP  RH WIND       PRES   REMARKS
WISE*          MOSUNNY   72  50  46 CALM      30.27F
JONESVILLE*      N/A     75  50  41 S5        30.24S
ABINGDON*      SUNNY     76  52  43 SE5       30.25S
BRISTOL        MOSUNNY   75  52  44 CALM      30.22F
MORRISTOWN*    SUNNY     75  54  46 CALM      30.20R
SEVIERVILLE*   SUNNY     75  55  50 CALM      30.19R
KNOXVILLE      MOSUNNY   76  55  48 N3        30.19R
LAFOLLETTE*    SUNNY     75  54  46 CALM      30.24S
OAK RIDGE      SUNNY     77  56  48 VRB3      30.20S
CROSSVILLE     SUNNY     73  50  44 SW5       30.22S
NASHVILLE      MOSUNNY   82  55  39 SE9       30.15F
$$

...KEY TO REMARKS...
VSB - VISIBILITY IN MILES
WCI - WIND CHILL INDEX
HX  - HEAT INDEX

$$



USA.gov is the U.S. government's official web portal to all federal, state and local government web resources and services.